Regional Weather Roundup
Issued by NWS Newport/Morehead, NC

Current Version | Previous Version | Graphics & Text | Print | Product List | Glossary On
Versions: 1 2 3 4 5 6 7 8 9 10 11 12 13 14 15 16 17 18 19 20 21 22 23 24 25 26 27 28 29 30 31 32 33 34 35 36 37 38 39 40 41 42 43 44 45 46 47 48 49 50
000 ASUS42 KMHX 251625 RWRMHX WEATHER ROUNDUP FOR EASTERN NORTH CAROLINA NATIONAL WEATHER SERVICE NEWPORT/MOREHEAD CITY NC 1100 AM EST SAT FEB 25 2017 NOTE: "FAIR" INDICATES FEW OR NO CLOUDS BELOW 12,000 FEET WITH NO SIGNIFICANT WEATHER AND/OR OBSTRUCTIONS TO VISIBILITY NCZ015>017-031-032-045>047-102-103-251700- NORTH COAST CITY SKY/WX TMP DP RH WIND PRES REMARKS EDENTON SUNNY 74 61 64 S9 29.74F ELIZABETH CITY SUNNY 72 61 68 SW13 29.74F KITTY HAWK NOT AVBL MANTEO SUNNY 70 60 70 S9 29.75F $$ NCZ045>047-081-094-103-104-251700- CENTRAL COAST CITY SKY/WX TMP DP RH WIND PRES REMARKS FRISCO MOSUNNY 71 61 70 VRB6 29.77S HAZE $$ NCZ095-097-098-100-101-251700- SOUTHERN COAST CITY SKY/WX TMP DP RH WIND PRES REMARKS BEAUFORT SUNNY 72 62 71 SW10 29.78F CEDAR ISLAND NOT AVBL JACKSONVILLE SUNNY 74 60 61 SW12 29.76F PINEY ISLAND SUNNY N/A N/A N/A W9 29.77F WILMINGTON SUNNY 74 60 61 S10 29.78F $$ NCZ011>013-027>030-043-044-078>080-089-090>093-098-251700- COASTAL PLAIN CITY SKY/WX TMP DP RH WIND PRES REMARKS AHOSKIE N/A 73 58 60 S7 29.71F CLINTON SUNNY 74 58 57 SW9 29.74F ELIZABETHTOWN SUNNY 75 58 55 SW10 29.75F GOLDSBORO SUNNY 73 60 62 S9 29.72F GREENVILLE SUNNY 73 59 60 SW10G18 29.76F HAVELOCK SUNNY 74 60 62 SW12 29.78F KENANSVILLE SUNNY 75 57 53 S7 29.75F KINSTON SUNNY 75 57 53 SW17 29.76F NEW BERN SUNNY 75 59 57 S9 29.77F RICHLANDS SUNNY 75 60 59 S14 29.77F ROCKY MOUNT SUNNY 72 59 63 S12G23 29.72F WASHINGTON SUNNY 74 59 59 SW10G16 29.73F WHITEVILLE SUNNY 75 59 57 SW12G18 29.75F $$ AMZ130-135-150-152-154-156-158-170-250-252-270-ANZ085-086-088-633-658-670-251700- MARINE OBSERVATIONS STATION/POSITION TIME TEMP WIND PRES WAVE SWELL AIR SEA DIR/SP/G HT/PER HT/PER (UTC) (F) (DEG/KT/KT) (MB) (FT/S) (FT/S) CHESAPEAKE LIGHT NOT AVBL 64 E VA BEACH 1550 58 55 160/ 4/ 6 1007.1 7/11 7/11 DUCK 1600 63 49 180/ 7/ 11 1006.7 2 E DUCK 1600 52 N/A 5/11 3/11 OREGON INLET 1600 65 58 180/ 5/ 7 1007.6 13E OREGON INLT NOT AVBL HATTERAS CG 1600 67 63 270/ 4/ 5 1008.0 DIAMOND BUOY 1550 70 76 260/ 8/ 10 1008.2 7/11 7/11 CAPE LOOKOUT 1600 70 220/ 8/ 9 1008.4 BEAUFORT LAB 1600 69 62 220/ 5/ 8 1007.6 30 SE NEW RVR IN 1608 66 240/ 8/ 12 1009.1 30 SE NEW RVR IN 1543 70 N/A 6/11 3/11 27 SE WRIGHTSVLE 1608 66 65 210/ 8/ 12 1008.5 5 SE WRIGHTSVLE 1608 61 59 190/ 12/ 16 1008.6 225 S CAPE HAT 1550 70 71 350/ 8/ 10 1010.5 8/10 8/10 41 SE CHARLESTON 1550 70 70 240/ 17/ 21 1009.6 6/10 5/10 $$

USA.gov is the U.S. government's official web portal to all federal, state and local government web resources and services.